Portada
METAR-TAF:

METAR-TAF

Aeropuertos :

Clayton Lake, Maine, Estados Unidos

latitud: 46-37N, longitud: 069-32W, altitud: 314 m

Observación

El informe se hizo hace 2 horas y 42 minutos, a las 20:16 UTC
Viento 4 kt con dirección variable
Temperatura -3°C
Humedad 54%
Presión 1022 hPa

METAR: K40B 222016Z AUTO VRB04KT M03/M11 A3019 RMK AO1 SLPNO T10311106

Hora: 17:58 (22:58 UTC)


TAF: falta

Observaciones y pronósticos meteorológicos de más de 4000 aeropuertos (mensajes METAR y TAF).

Los puntos amarillos y rojos representan las estaciones disponibles.

Ponga el ratón en el punto deseado para ver el nombre de la estación.

Haga clic para ver las observaciones y los pronósticos meteorológicos.

Para cambiar el mapa : haga clic en los botones verdes con una cruz de color negro para hacer un zoom, en el botón verde con un guión para alejar o en las flechas verdes para mapas adyacentes.


METAR-TAF: